User: anonymous   Login
Location: Selby
(38.0566°N, 122.2439°W)
Time: 23:40:42
(UTC+00:00)
Language:

CZ-6A DEB - Orbit

View from above orbital plane
View from above orbital plane
View from above satellite
View from above satellite

Ground track
Ground track

The orbit data is extracted from the following two-line orbital elements,

1 56641U 22151AFR 24284.41905498  .00025053  00000-0  37486-2 0  9998
2 56641  98.7143 335.1042 0166134 318.0345  40.8223 14.65694672 83166
Epoch (UTC): 10 October 2024 10:03:26
Eccentricity: 0.0166134
inclination: 98.7143°
perigee height: 557 km
apogee height: 792 km
right ascension of ascending node: 335.1042°
argument of perigee: 318.0345°
revolutions per day: 14.65694672
mean anomaly at epoch: 40.8223°
orbit number at epoch: 8316

The dashed part of the orbit path shows where the satellite is in the earth's shadow,  

DLR